Date,TemperatureHighF,TemperatureAvgF,TemperatureLowF,DewpointHighF,DewpointAvgF,DewpointLowF,HumidityHigh,HumidityAvg,HumidityLow,PressureMaxIn,PressureMinIn,WindSpeedMaxMPH,WindSpeedAvgMPH,GustSpeedMaxMPH,PrecipitationSumIn
2013-9-1,101,83,70,80,76,69,98,81,48,29.88,29.76,7,2,0,0.00
2013-9-2,97,81,71,85,76,70,98,88,58,29.92,29.82,10,2,0,0.00
2013-9-3,100,83,71,82,77,71,98,84,53,29.93,29.81,6,1,0,0.00
2013-9-4,101,83,69,81,74,69,98,80,44,30.02,29.91,7,1,0,0.00
2013-9-5,101,83,70,81,76,69,98,82,44,30.05,29.95,5,1,0,0.00
2013-9-6,100,82,70,82,75,70,98,84,44,30.05,29.90,7,1,0,0.13
2013-9-7,101,81,68,77,73,67,98,81,44,29.99,29.87,6,1,0,0.00
2013-9-8,101,80,64,78,72,64,98,79,42,29.94,29.83,6,1,0,0.00
2013-9-9,103,81,66,78,73,65,98,80,44,30.00,29.89,5,1,0,0.00
2013-9-10,102,81,69,85,75,68,98,85,50,30.06,29.94,6,1,0,0.04
2013-9-11,101,82,68,79,73,67,98,80,44,30.08,29.94,5,1,0,0.00
2013-9-12,101,80,66,79,71,66,98,79,38,30.00,29.82,5,1,0,0.00
2013-9-13,97,77,67,78,72,66,98,88,53,29.87,29.75,8,2,0,0.25
2013-9-14,91,73,61,70,65,60,98,80,41,29.94,29.84,8,1,0,0.01
2013-9-15,98,75,57,72,66,56,98,78,39,30.02,29.93,8,1,0,0.00
2013-9-16,101,79,66,79,72,65,98,82,44,30.04,29.92,7,1,0,0.00
2013-9-17,100,78,64,75,69,63,98,77,40,30.03,29.89,7,1,0,0.00
2013-9-18,93,78,65,80,74,64,98,88,63,30.01,29.90,6,1,0,0.00
2013-9-19,99,81,69,80,74,69,98,84,51,29.98,29.86,6,1,0,0.00
2013-9-20,91,77,71,88,76,70,98,95,71,29.93,29.70,8,2,0,1.84
2013-9-21,79,72,66,77,72,66,98,98,92,29.76,29.67,6,2,0,2.45
2013-9-22,85,68,56,67,62,56,98,84,52,29.82,29.73,6,2,0,0.00
2013-9-23,88,71,52,79,68,52,98,91,71,29.82,29.74,5,1,0,0.00
2013-9-24,81,74,71,80,74,70,98,98,98,29.82,29.70,7,1,0,3.25
2013-9-25,89,75,63,79,70,62,98,87,52,29.80,29.71,7,2,0,0.00
2013-9-26,92,73,58,74,66,58,98,84,51,29.92,29.78,6,1,0,0.01
2013-9-27,91,74,64,78,70,64,98,88,60,30.00,29.91,6,1,0,0.00
2013-9-28,90,72,61,74,67,60,98,87,56,30.05,29.95,5,1,0,0.00
2013-9-29,75,69,61,75,68,60,98,98,98,30.01,29.90,3,0,0,0.02
2013-9-30,85,74,67,84,73,66,98,98,92,29.92,29.84,7,1,0,0.02